Wind_Speed
34 31 30 31 29 27 28 28 25 23 23 23 23 23 21 21 21 20 19 18 18 18 18 19 20 20 20 19 19 19 19 20 20 21 21 20 20 19 19 18 18 18 17 16 15 14 13 13 13 13 13 13 14 16 17 18 19 20 20 20 21 21 21 20 19 19 19 18 18 18 18 18 20 21 21 22 22 23 25 26 27 29 30 32 33
34 33 32 31 29 29 30 29 25 23 24 24 24 23 21 21 21 20 19 18 19 19 19 21 21 21 21 20 19 19 19 20 20 21 21 21 20 20 19 18 18 18 17 15 14 14 14 14 14 13 14 14 15 17 18 19 19 19 19 19 20 21 21 20 19 19 18 18 18 18 18 19 20 20 21 21 21 22 23 26 27 28 29 30 31
34 33 33 31 30 31 32 30 26 24 24 24 24 23 21 20 20 20 19 19 20 20 20 21 22 22 21 20 19 19 19 19 20 20 21 21 20 19 18 18 18 17 16 15 14 14 14 14 14 14 14 15 16 18 19 19 19 19 18 18 19 20 20 20 19 18 17 17 17 17 18 19 19 20 21 21 21 21 22 24 26 28 28 30 31
35 34 33 32 32 34 33 30 27 25 25 24 23 22 20 20 20 20 19 20 21 21 22 22 22 22 21 19 18 18 18 18 19 20 20 19 18 18 17 17 17 16 15 15 14 14 15 15 14 15 15 16 18 18 19 19 18 18 18 18 19 19 19 19 18 18 17 17 17 17 18 19 19 19 20 21 21 21 22 23 24 27 29 30 30
35 34 33 33 35 35 33 31 28 27 25 24 23 22 20 20 20 20 20 21 22 22 23 23 22 22 21 19 18 18 18 18 18 18 17 17 17 17 17 17 17 16 15 15 15 15 15 15 15 15 16 17 18 18 18 18 17 18 18 17 18 18 18 18 18 18 17 17 17 18 19 19 19 18 18 19 21 22 23 23 23 25 27 29 29
35 34 34 35 36 35 33 31 29 27 26 24 23 22 21 20 21 21 21 22 22 23 23 23 22 22 21 20 19 18 18 17 16 16 16 16 16 16 16 16 16 16 16 16 16 16 16 16 16 16 17 18 18 18 17 17 17 17 17 17 17 17 18 18 18 17 17 17 17 19 20 20 19 18 17 17 19 21 23 23 24 24 25 27 28
36 35 35 35 35 34 33 31 29 28 27 25 23 22 21 21 21 22 22 23 23 23 24 23 23 22 22 21 19 18 17 16 16 16 15 15 15 15 16 17 17 17 17 17 17 17 17 17 17 18 18 18 17 17 17 17 17 17 16 17 17 17 17 17 17 17 17 17 18 19 20 19 18 18 17 17 18 20 21 21 22 23 23 24 25
38 36 36 36 35 33 32 31 29 28 27 26 24 22 22 22 22 23 24 25 24 24 24 24 23 23 22 21 19 17 16 16 16 15 14 14 15 16 16 17 18 18 19 19 18 18 18 19 18 18 18 17 17 16 17 17 17 17 16 16 17 17 17 17 17 17 17 17 18 19 19 18 18 17 17 17 18 20 20 20 21 22 23 23 23
39 37 36 36 35 33 32 30 28 28 28 27 25 23 23 23 23 24 25 25 25 24 25 24 24 24 22 21 19 17 17 17 16 15 14 15 15 16 17 18 19 19 20 20 19 19 20 20 19 19 18 16 15 16 16 16 16 16 16 16 17 17 17 17 17 17 17 17 19 19 18 18 17 17 17 17 18 19 20 20 21 21 23 23 23
40 38 37 36 35 33 32 30 29 29 28 27 26 24 23 23 24 24 25 25 25 25 25 25 24 23 22 21 20 18 18 18 17 16 16 16 17 17 18 20 20 21 21 22 21 21 21 22 22 21 18 15 14 15 16 15 15 16 16 16 17 17 17 17 17 17 17 17 19 18 18 18 17 17 17 17 18 19 19 20 21 21 22 22 21
40 39 37 36 35 34 33 31 30 29 29 28 27 25 24 25 25 25 25 26 26 26 26 25 23 23 22 22 20 19 19 19 19 18 17 17 18 19 20 21 22 23 24 25 24 24 25 26 25 23 18 14 12 14 15 15 15 15 16 16 17 17 17 17 17 17 17 17 18 18 18 18 17 17 17 18 18 19 19 20 21 22 22 22 21
40 38 36 36 36 35 34 32 31 30 30 29 28 27 26 27 27 26 26 26 26 26 26 24 23 23 23 22 21 19 19 20 20 19 19 19 20 20 22 23 24 25 26 27 26 26 27 27 26 24 20 14 11 12 14 14 15 15 16 16 17 17 17 17 17 18 18 18 18 18 18 18 18 17 17 18 19 19 19 20 21 22 23 24 24
40 38 37 37 37 36 35 34 32 31 31 30 30 29 28 28 28 26 26 27 27 26 25 24 24 23 23 23 22 20 20 20 20 19 20 20 21 22 23 25 25 26 26 26 25 25 25 24 24 24 21 14 11 12 14 14 15 16 16 17 17 17 17 17 18 18 19 18 18 18 18 18 18 18 18 18 18 18 18 19 21 22 23 24 25
38 38 38 39 39 38 37 35 33 32 32 32 32 31 30 29 28 27 27 28 27 25 25 24 24 23 22 23 22 21 21 20 20 20 20 21 21 22 24 25 25 25 24 24 24 23 22 21 20 19 18 15 13 13 13 14 16 16 16 16 17 17 17 18 18 19 19 19 19 18 19 19 19 19 18 18 18 17 17 18 20 21 22 23 24
38 38 39 40 41 41 39 38 35 34 34 34 34 32 31 30 30 29 29 28 26 25 25 25 24 23 23 23 23 23 22 22 21 21 21 21 22 22 24 25 25 24 25 25 24 23 22 21 18 16 17 16 15 14 14 15 16 16 16 16 17 17 18 18 19 19 19 20 19 19 19 20 20 20 19 18 18 17 16 17 19 20 20 21 23
39 39 39 40 41 41 41 39 37 36 35 36 35 34 32 32 31 30 29 29 27 26 26 25 24 23 23 24 24 24 24 24 23 23 22 22 23 23 24 25 26 26 27 26 24 23 22 20 17 16 17 17 16 16 16 16 16 16 16 17 17 18 18 19 19 19 20 20 19 19 19 20 20 20 19 18 17 17 16 17 19 20 20 20 21
37 39 40 40 40 40 40 39 38 37 36 37 37 35 33 32 32 31 30 29 28 27 27 25 24 23 23 24 24 25 25 25 24 24 23 23 24 24 25 25 26 27 26 24 22 21 20 18 17 17 18 17 18 18 17 17 16 16 17 17 17 18 19 19 20 20 20 20 19 19 20 20 21 20 19 18 18 17 16 17 19 20 20 20 20
34 37 39 40 40 40 40 39 38 37 37 37 37 35 33 32 32 32 31 30 29 28 26 26 25 24 23 24 25 25 26 25 24 24 23 23 24 24 24 24 25 27 26 23 21 19 18 18 18 18 18 18 19 19 18 18 17 17 17 17 17 18 19 20 20 20 20 20 20 20 20 20 21 20 20 18 18 17 16 17 19 20 21 21 21
31 34 37 39 40 40 39 38 38 38 38 36 35 34 34 32 31 30 31 31 29 27 27 27 26 25 24 25 25 26 26 25 23 23 23 22 22 22 22 23 24 26 25 23 20 19 18 18 19 19 19 19 19 19 19 19 18 18 18 17 17 18 19 20 21 21 21 21 20 20 20 21 21 21 20 19 18 17 17 17 19 20 21 21 21
32 34 36 39 40 39 38 38 38 38 38 35 33 33 33 29 27 28 30 30 30 28 28 28 27 26 26 26 26 27 27 23 21 21 21 20 20 20 22 22 21 22 22 22 21 20 19 19 20 20 20 20 20 21 21 20 19 19 18 18 17 18 20 21 21 21 21 21 21 20 20 20 21 21 20 20 19 18 17 18 20 21 21 21 21
35 36 37 39 39 38 37 37 38 38 35 31 30 32 30 26 27 30 30 29 30 30 28 27 27 28 26 26 27 28 24 20 18 19 19 19 20 21 21 21 20 19 20 20 20 20 19 20 20 21 22 22 21 22 22 22 21 20 19 19 19 19 20 21 21 21 22 21 21 21 20 20 21 21 21 20 19 18 18 19 21 22 22 21 21
38 38 38 39 39 38 38 38 38 36 30 28 29 31 29 26 28 30 28 27 27 28 27 25 27 28 27 25 27 26 20 15 15 18 18 19 20 19 19 20 21 20 19 19 19 19 19 20 21 23 23 23 23 23 23 23 22 21 20 21 20 20 21 21 21 22 22 22 21 21 20 20 20 21 21 20 20 19 19 20 21 22 23 22 21
38 39 39 38 37 38 38 37 36 33 29 27 28 29 27 27 27 27 26 25 25 26 26 25 26 27 26 24 23 21 18 15 16 18 19 20 20 19 20 22 22 21 20 18 19 19 20 21 22 23 24 24 24 24 24 24 23 22 22 22 21 21 21 22 22 22 22 22 21 21 20 20 20 21 21 21 20 20 19 20 22 23 23 22 21
38 38 38 37 36 38 37 35 34 33 30 27 26 25 24 25 24 23 24 25 26 26 26 27 27 25 22 19 19 18 18 18 19 20 21 22 22 22 22 22 23 23 22 21 20 21 21 22 23 24 25 25 25 25 25 25 25 24 24 23 22 21 21 22 22 22 22 22 22 21 20 19 19 20 21 21 20 20 20 21 21 22 23 22 21
37 37 36 35 35 36 34 32 33 32 30 30 29 26 24 23 23 22 23 24 26 27 26 25 24 21 17 15 16 17 18 20 21 22 23 23 23 23 23 23 23 24 24 23 22 22 22 23 23 24 25 25 25 26 26 26 26 25 24 24 22 21 21 22 22 23 23 23 22 21 20 20 19 20 20 20 20 19 20 21 21 21 22 22 21
34 34 33 32 32 32 31 32 33 31 29 30 28 24 23 24 24 23 23 23 25 26 24 22 21 19 16 15 17 19 20 21 22 24 24 24 23 24 25 24 22 22 23 23 22 22 23 24 24 24 25 25 26 27 27 27 26 26 25 24 22 21 21 22 22 23 23 23 22 21 20 20 20 20 21 21 20 20 20 20 21 21 21 21 21
31 30 30 30 29 30 31 32 34 32 29 28 26 22 22 25 26 24 23 23 23 23 22 22 21 20 18 17 18 20 22 22 23 25 25 24 24 25 25 25 23 22 21 21 21 23 25 25 24 25 25 25 26 26 26 26 26 26 25 24 23 22 22 22 22 22 22 22 22 21 21 21 21 21 22 21 20 20 20 20 20 21 20 20 19
29 27 26 27 26 27 29 31 33 33 32 30 27 24 24 26 26 23 23 23 22 21 21 22 22 21 20 19 19 21 23 25 25 25 25 27 28 29 28 27 25 24 22 21 23 26 27 27 27 26 26 25 25 25 25 26 26 27 26 25 24 23 23 22 21 21 21 22 23 22 22 21 21 21 22 22 21 21 20 20 20 21 21 20 19
26 24 24 24 24 24 25 27 29 31 31 30 27 25 26 27 25 23 22 23 23 21 20 21 21 20 20 20 21 22 24 23 23 24 26 28 29 29 29 28 26 24 23 24 25 28 29 30 29 28 26 26 25 25 26 26 27 27 26 26 25 24 23 22 22 22 22 22 23 22 22 22 22 22 22 22 22 21 20 19 20 21 21 21 20
26 23 21 22 23 21 20 21 24 26 29 30 29 28 27 26 25 24 24 24 23 23 22 22 21 19 19 20 21 22 23 23 24 27 28 26 25 24 25 26 25 23 23 24 25 26 28 30 30 28 26 26 25 25 26 27 27 27 26 26 26 25 24 23 22 22 23 23 23 23 22 22 22 22 23 23 22 20 20 19 20 21 22 22 21
23 23 22 20 20 18 16 16 20 23 26 27 26 25 25 25 24 24 23 23 22 23 24 23 21 20 21 21 21 24 25 25 26 27 26 24 23 24 24 25 25 24 24 24 24 23 24 26 26 25 24 24 24 24 25 26 26 26 26 26 26 25 24 23 23 23 23 24 24 23 22 22 22 22 23 23 21 20 20 20 20 21 22 23 23
18 22 24 23 21 20 18 19 22 23 23 22 23 23 23 23 22 22 21 21 21 21 22 22 22 22 21 21 23 26 28 27 27 26 25 24 24 25 25 25 25 25 25 24 23 21 20 22 23 22 22 22 22 23 24 25 25 25 25 25 25 25 24 24 24 24 24 24 24 24 23 22 22 22 23 23 22 21 21 22 23 22 22 23 24
18 20 21 22 23 23 23 24 24 23 21 21 22 22 21 21 20 20 20 19 19 20 20 21 23 24 24 24 26 28 29 29 27 26 25 25 25 25 25 26 27 27 26 25 23 20 20 21 22 22 22 22 22 23 24 24 24 24 24 24 24 24 24 25 25 25 25 24 24 24 23 23 23 23 23 23 23 22 22 24 24 23 22 23 24
18 18 18 20 24 26 26 25 23 22 22 22 21 20 18 17 17 17 17 17 18 19 19 19 22 24 25 28 30 31 30 29 28 27 27 26 26 26 27 28 28 27 26 25 23 21 21 21 21 22 22 23 23 24 24 24 24 24 24 24 24 24 25 26 27 26 25 25 25 24 24 24 24 23 23 23 22 22 23 24 23 22 22 23 24
21 20 18 20 23 24 25 24 24 23 22 20 18 16 14 13 13 15 16 18 19 19 19 21 23 24 25 27 30 30 30 29 29 29 29 27 27 27 26 26 25 25 25 24 23 22 21 22 22 23 24 24 24 24 24 24 24 25 24 24 25 25 26 27 28 27 26 26 25 24 24 24 24 24 23 23 23 23 24 23 22 22 23 23 23
19 20 20 22 24 24 23 23 22 21 20 19 17 15 15 16 18 20 21 23 24 25 26 27 26 24 23 25 28 30 31 32 31 29 27 26 26 24 23 22 23 23 23 23 22 22 22 23 24 24 25 24 24 23 23 24 24 25 25 26 27 27 28 29 29 28 28 27 26 24 24 25 25 24 24 23 24 24 24 22 21 22 23 24 24
10 13 17 20 20 19 18 18 18 18 18 18 17 17 19 20 22 23 24 26 28 30 30 28 26 24 24 25 27 29 29 29 28 26 25 24 22 20 20 22 22 22 22 21 22 23 23 23 23 23 24 24 23 23 24 24 25 25 26 28 29 29 29 30 30 29 29 28 26 25 25 25 25 24 25 24 23 23 23 22 21 22 24 25 25
7 8 11 14 15 14 14 14 15 16 16 17 17 18 19 21 22 24 25 27 28 28 27 25 26 27 26 25 26 26 23 22 23 24 23 22 21 20 21 22 21 21 21 22 23 24 23 23 23 23 23 23 24 24 25 26 26 27 28 29 30 31 31 31 31 30 29 28 27 26 26 25 25 25 25 25 23 23 22 21 21 23 24 25 25
8 7 8 10 12 14 15 14 14 15 16 17 17 18 20 22 24 26 26 26 25 25 24 23 25 26 25 24 24 24 22 22 23 23 23 22 21 22 22 22 22 22 22 22 24 24 24 23 24 23 23 23 24 24 25 26 27 28 29 30 31 31 31 31 31 30 30 29 27 26 27 26 25 26 26 25 23 23 23 23 23 24 25 26 26
9 8 10 12 15 18 18 17 17 18 19 19 20 21 23 26 27 26 25 24 23 22 22 22 23 23 22 22 23 24 24 25 24 23 22 22 21 22 23 23 23 22 22 23 24 25 25 25 24 24 24 24 24 24 24 25 27 28 28 29 29 29 29 30 30 31 30 29 28 27 28 27 26 26 26 25 23 23 24 25 25 25 25 26 27
12 13 16 19 21 23 23 24 24 25 24 23 23 23 25 27 27 25 23 23 23 22 21 22 22 22 21 22 23 24 24 24 22 23 24 23 23 24 24 23 22 22 23 24 25 25 26 25 25 25 24 24 23 23 24 24 25 26 27 27 27 27 28 29 30 30 30 29 28 28 29 28 28 27 26 25 24 25 25 26 26 25 25 26 26
21 22 24 26 27 27 28 27 26 24 25 26 26 27 28 29 28 25 24 24 23 23 22 23 23 23 24 25 25 26 25 24 24 25 26 24 23 24 24 23 22 24 25 26 27 27 26 26 25 26 25 24 24 24 24 24 25 25 26 27 27 26 27 28 29 29 29 29 29 29 29 29 28 28 27 26 25 26 26 26 25 24 24 25 25
28 29 30 30 30 30 30 28 26 24 26 28 30 29 29 29 28 27 27 27 26 25 25 25 25 25 26 26 27 28 28 27 26 27 26 25 24 25 24 24 25 26 27 28 28 28 27 26 26 26 26 25 26 26 26 26 26 26 27 27 27 27 26 27 27 28 28 28 28 29 29 29 29 28 27 26 25 26 26 25 24 23 24 24 24
28 30 30 30 29 27 27 26 26 26 27 28 29 30 28 27 27 27 27 27 27 26 26 26 26 26 26 26 26 26 26 26 26 26 26 26 26 26 27 27 28 28 29 29 28 28 27 27 27 27 27 28 29 28 27 27 27 27 27 27 27 27 27 27 27 27 27 27 27 28 29 29 29 28 27 25 25 26 26 25 24 23 23 24 24
26 27 28 27 26 25 25 25 25 25 26 27 28 28 27 26 27 27 27 26 25 24 25 26 26 26 26 27 26 25 25 26 25 25 26 27 27 28 29 30 30 30 30 29 28 28 27 28 28 29 29 30 29 28 27 27 27 26 26 27 27 27 27 27 26 27 27 28 28 28 28 28 28 27 26 25 26 27 26 25 23 22 22 23 24
24 25 26 26 25 25 24 24 23 23 24 25 25 26 25 25 25 25 25 24 24 24 25 26 26 26 27 28 28 27 26 25 25 25 25 27 28 29 31 32 31 30 29 29 28 28 27 27 28 29 29 28 28 27 27 26 26 25 25 26 26 26 27 27 27 28 28 28 28 28 27 27 27 26 26 25 26 27 26 24 23 22 22 23 24
22 23 24 24 23 22 21 21 21 21 21 22 23 23 23 23 23 23 24 24 25 26 27 28 28 28 28 29 30 30 29 28 27 27 27 29 30 31 32 32 32 30 29 29 29 27 26 25 26 26 26 26 26 26 26 26 25 25 26 26 26 26 27 27 28 27 27 28 28 28 27 27 27 27 26 27 27 27 25 24 23 22 22 23 25
21 21 22 22 22 21 20 19 19 20 21 22 22 22 22 23 23 23 24 25 26 28 29 30 31 30 30 30 31 31 32 31 30 29 29 30 30 31 31 32 32 31 31 30 28 26 25 25 26 26 26 26 26 26 26 26 26 26 27 27 27 26 26 27 27 27 27 28 28 28 28 27 27 27 27 27 27 26 25 24 23 22 22 23 24
22 22 22 22 22 22 22 21 21 21 22 22 23 23 25 26 26 25 25 26 27 28 29 30 31 32 32 31 31 31 32 31 30 29 29 29 30 31 32 32 32 32 32 31 28 27 26 27 27 27 27 27 28 28 28 28 27 27 27 27 26 26 27 27 27 27 27 28 28 29 28 27 27 26 27 27 27 26 24 23 23 23 23 23 24
26 25 24 24 24 24 24 24 24 24 25 25 25 26 28 29 28 28 27 26 25 25 25 26 27 28 29 30 31 31 31 30 30 30 29 30 32 32 32 32 32 31 29 28 26 26 26 26 27 28 29 29 30 29 29 29 28 27 27 27 26 26 27 28 28 28 28 28 28 29 29 28 27 27 27 27 26 25 24 24 24 24 24 24 24
29 28 28 28 28 27 27 26 27 27 28 28 28 28 29 30 30 29 27 25 24 23 23 24 24 24 26 27 28 28 29 30 30 30 30 31 32 32 29 29 29 28 26 24 24 25 26 27 29 30 30 31 31 31 30 30 29 29 29 28 27 26 27 27 28 29 28 28 29 30 31 30 29 28 27 26 26 26 25 25 24 24 24 24 24
Wind_Direction
248 236 227 222 220 218 220 227 231 229 229 231 233 236 236 236 238 238 237 234 233 233 230 225 224 225 228 230 232 235 237 240 242 244 247 250 253 256 258 259 261 264 265 262 261 263 265 268 272 275 278 281 284 286 286 288 290 292 295 298 299 298 296 295 295 296 299 303 305 306 309 312 314 317 321 323 324 324 325 328 332 334 334 333 334
242 230 223 221 220 218 220 228 231 230 230 231 233 235 235 235 237 238 236 233 233 234 231 227 224 225 228 231 234 237 240 241 243 245 247 250 253 256 257 257 259 261 259 257 258 262 266 269 272 275 278 282 283 284 285 287 289 292 296 297 298 296 294 295 295 297 300 302 302 304 307 312 315 318 320 320 321 322 326 330 332 333 334 335 335
236 226 221 220 220 217 220 228 231 231 231 232 233 235 235 235 236 237 236 233 232 233 232 229 226 226 228 232 236 239 240 241 243 245 248 250 252 253 254 255 256 255 252 254 257 260 264 268 272 276 279 281 282 282 285 288 291 294 296 297 296 294 294 295 296 297 298 299 300 303 307 312 316 317 317 317 319 323 328 331 331 332 336 338 337
229 221 218 220 219 217 221 228 231 232 233 234 235 235 235 234 236 236 235 233 232 232 232 229 228 228 230 234 238 239 240 242 244 246 248 249 250 250 251 252 251 249 248 251 255 258 262 267 271 275 278 279 281 283 286 289 292 294 295 296 295 294 295 296 296 296 297 299 301 304 308 313 314 315 316 317 320 325 329 331 333 336 339 340 339
223 217 218 220 218 217 222 227 230 233 235 236 236 236 235 234 235 235 235 233 232 231 230 229 229 230 233 235 238 239 241 243 245 246 247 248 248 248 249 247 244 243 245 248 252 256 261 266 269 272 276 278 280 283 286 289 290 292 294 295 295 295 296 295 296 296 298 300 302 305 309 311 312 313 316 319 321 325 327 331 336 341 341 340 340
219 215 218 220 218 219 223 227 231 234 236 238 237 236 235 233 233 235 235 233 231 229 229 229 229 231 234 236 238 240 243 245 246 247 247 247 247 245 243 241 240 242 245 247 251 257 261 263 266 269 273 277 280 283 286 287 288 291 294 295 294 295 295 295 295 296 298 299 301 306 309 311 312 314 317 319 321 323 327 332 338 343 343 341 340
217 216 220 221 220 221 224 228 232 235 237 238 236 234 234 232 232 235 235 233 230 228 228 229 229 232 234 236 238 240 242 244 245 245 244 244 243 241 240 239 240 242 244 248 252 256 259 260 263 266 271 275 278 281 283 285 288 291 293 294 293 295 295 294 294 295 296 297 301 306 309 311 313 315 316 318 320 322 326 332 337 341 344 345 343
217 217 221 222 222 224 226 230 234 236 237 237 234 232 232 231 231 232 234 233 230 227 228 229 230 232 234 236 238 240 241 243 243 241 241 242 241 240 241 242 242 244 247 250 252 254 256 258 260 264 268 272 276 279 281 283 287 290 291 292 293 294 294 293 293 294 295 297 302 307 309 310 312 314 315 318 320 321 324 330 336 340 344 346 345
218 219 221 222 224 226 229 233 235 237 237 237 235 232 230 230 231 232 234 234 230 228 229 230 232 233 234 236 238 239 240 241 241 239 241 243 242 243 245 245 245 247 249 250 250 250 252 255 258 260 262 267 271 275 279 283 285 287 289 290 291 292 292 292 293 294 294 299 304 307 309 311 312 313 314 317 317 317 321 329 336 341 345 347 347
219 221 222 223 226 228 231 234 237 238 239 239 237 233 229 230 231 232 234 234 231 230 230 232 233 233 233 235 237 239 239 239 240 240 242 246 246 248 251 251 250 251 251 251 250 249 250 252 253 255 258 263 268 272 277 281 283 285 287 289 290 291 291 291 292 292 295 300 304 307 309 311 311 311 313 316 315 316 322 329 335 340 344 347 348
221 223 224 225 227 230 233 236 239 241 241 241 239 235 231 230 231 232 233 234 232 231 232 233 233 233 233 234 237 238 239 239 241 242 245 248 250 253 256 256 255 254 252 250 248 249 251 252 251 251 252 251 258 267 273 278 281 283 285 287 289 290 290 290 290 291 294 299 303 306 308 310 311 312 314 315 315 316 322 328 333 337 341 345 348
224 225 226 227 229 232 235 239 242 243 243 243 240 236 232 230 231 231 232 233 232 231 233 234 234 233 233 234 237 239 240 241 243 246 248 251 253 256 259 259 258 257 257 257 259 261 264 264 266 270 266 252 246 261 270 275 278 280 282 285 288 289 288 288 289 290 293 298 301 304 307 311 313 314 314 314 314 315 321 327 331 335 339 344 348
227 228 228 229 231 234 237 241 244 245 245 244 240 236 232 230 230 231 231 233 232 231 233 235 234 234 234 235 237 239 242 245 247 249 252 254 256 258 261 262 262 262 263 265 269 272 272 274 281 286 279 263 252 259 266 272 275 276 280 285 287 287 286 286 287 288 293 298 299 302 308 313 315 314 312 312 310 312 319 326 329 333 338 343 347
230 231 232 233 235 237 240 242 244 245 245 244 240 236 232 230 230 230 230 231 231 230 233 235 235 236 236 237 239 241 244 247 250 253 256 258 260 261 262 264 266 267 268 268 270 269 267 270 276 277 271 264 261 261 263 268 272 275 280 285 285 284 282 282 284 287 292 296 298 302 309 313 314 311 310 309 308 308 315 324 327 330 336 341 345
232 234 235 237 238 239 241 243 244 245 244 242 240 236 232 229 230 230 230 231 231 230 232 234 235 236 237 238 240 242 245 248 251 256 259 261 261 262 263 265 267 268 268 267 265 264 265 268 269 263 262 264 264 262 262 265 270 274 280 282 282 281 280 279 281 285 290 294 296 302 308 311 311 309 307 307 306 305 312 321 324 327 333 339 343
234 236 237 239 239 240 242 243 244 245 243 242 240 235 230 228 228 229 230 230 229 228 229 233 234 236 238 239 241 242 245 248 251 254 257 258 259 261 263 265 267 268 268 267 264 264 266 266 260 254 256 261 262 262 263 264 268 273 277 279 279 278 277 277 279 283 288 291 295 300 305 308 308 307 305 304 303 303 310 320 323 325 330 336 340
236 238 239 240 240 241 242 243 243 244 243 242 239 234 229 227 228 229 229 229 228 228 229 232 235 237 239 239 241 243 245 247 249 251 254 256 259 261 264 266 268 268 270 273 272 269 265 258 251 251 255 258 261 262 263 264 267 271 274 276 277 276 275 275 278 282 285 288 292 296 302 306 307 305 303 302 302 303 309 319 322 323 326 331 335
238 239 241 242 243 243 244 244 243 243 243 242 239 233 228 226 226 228 229 229 228 227 228 232 235 236 239 239 240 242 244 245 247 250 254 258 261 264 265 267 268 268 271 274 272 266 260 252 249 251 252 255 259 261 262 264 267 270 273 274 275 274 273 273 275 279 282 285 289 294 299 303 304 303 301 301 301 303 308 317 321 320 321 326 331
242 243 244 245 245 245 245 245 244 244 242 239 235 230 228 227 228 231 230 230 231 229 227 231 235 236 238 238 240 241 242 243 246 250 256 259 260 263 266 268 269 267 268 268 265 261 257 253 251 250 251 254 257 259 261 263 265 268 270 273 274 273 271 271 273 276 279 282 285 290 296 300 302 303 302 302 303 304 308 316 319 317 317 322 328
246 246 245 246 246 245 245 246 246 246 242 234 228 227 229 232 239 241 238 237 239 235 228 229 234 237 238 239 241 242 239 238 243 250 254 256 258 260 264 268 270 265 260 259 258 257 254 251 250 250 250 251 253 256 260 263 264 266 268 270 270 268 267 268 271 273 276 278 282 287 292 297 301 303 304 305 306 307 310 316 317 315 315 319 325
247 247 245 245 246 245 245 246 247 245 236 224 221 225 228 234 241 244 245 247 246 240 234 231 231 236 239 241 244 246 242 235 241 249 252 254 257 259 262 266 268 262 255 255 256 254 252 250 249 249 250 250 251 254 258 262 264 266 267 267 267 265 266 267 268 271 274 276 279 285 291 296 300 303 305 305 306 309 312 316 316 314 313 317 322
246 246 244 244 245 244 244 246 246 241 226 212 215 223 228 235 241 246 251 253 247 242 239 234 230 235 240 241 246 254 257 250 248 254 259 260 260 260 260 261 262 259 256 256 255 252 249 248 249 250 251 251 252 254 258 262 265 266 266 266 266 266 266 266 267 270 272 274 278 284 290 295 299 302 304 304 306 311 314 316 315 313 312 314 319
244 243 242 242 243 244 245 245 240 228 212 205 213 222 229 238 245 251 254 250 243 241 238 232 229 232 236 240 247 255 259 259 257 260 263 263 261 262 261 258 255 255 256 257 255 250 248 249 249 250 251 252 254 257 260 263 266 267 265 266 266 267 267 267 267 269 271 273 277 282 288 292 296 300 303 304 306 311 315 315 314 312 310 312 317
239 240 241 240 240 243 244 240 231 220 214 218 222 223 227 236 243 248 250 244 240 239 235 229 226 228 231 240 248 248 249 254 258 259 260 259 257 261 264 260 255 252 252 255 253 249 248 250 250 250 251 252 254 257 260 264 267 268 269 269 269 269 269 268 268 269 271 273 276 281 286 289 293 297 299 300 302 308 313 312 310 309 308 309 313
236 238 241 241 240 241 238 229 223 221 225 233 234 227 225 232 237 240 244 243 240 239 235 229 227 231 235 239 243 246 249 251 253 255 257 257 257 261 266 264 257 250 249 252 251 247 247 250 250 250 251 252 254 257 260 263 265 267 269 270 271 270 270 269 269 270 271 272 276 281 284 286 289 293 294 295 298 303 308 308 306 305 305 306 310
239 238 244 248 241 231 223 216 214 216 222 235 240 230 223 229 233 234 239 244 243 242 240 234 230 235 242 244 245 249 250 249 250 252 254 256 260 264 264 260 254 249 249 253 252 247 247 250 250 250 251 252 254 258 261 264 267 268 269 270 270 270 270 269 270 270 270 272 275 279 281 283 286 289 290 290 293 297 301 303 302 302 302 303 306
245 239 248 254 240 220 210 209 211 212 218 232 238 228 221 228 232 233 237 242 242 241 241 239 234 235 240 246 250 250 251 253 257 259 260 261 263 264 262 256 250 248 250 252 251 249 248 249 249 249 250 253 256 259 263 268 270 270 269 269 269 268 268 269 270 271 271 271 272 275 278 280 282 284 286 287 288 290 294 297 298 299 300 301 303
246 239 247 252 236 215 207 208 211 214 217 224 228 225 224 230 234 235 240 242 242 240 239 239 238 236 237 241 245 247 251 256 260 261 261 259 257 257 257 254 251 251 253 252 251 250 249 248 248 248 250 252 256 260 264 268 270 269 268 268 267 267 267 268 269 269 268 267 268 270 274 276 278 280 282 284 285 286 290 294 297 298 299 301 303
238 235 241 238 222 213 213 212 214 219 219 219 222 224 226 232 236 238 238 238 236 235 235 238 238 235 233 233 235 240 247 253 256 257 256 256 256 257 257 255 253 256 259 259 258 255 251 249 249 250 252 253 256 260 263 266 268 268 267 267 267 267 267 267 267 266 263 261 263 267 270 274 276 277 280 282 283 285 288 292 296 298 300 302 306
225 223 229 225 213 212 217 214 211 216 217 216 219 223 226 231 233 231 230 231 230 229 232 234 231 226 225 227 230 237 243 247 252 256 258 259 260 259 256 255 256 260 264 266 265 261 257 254 252 251 255 258 261 263 265 265 266 267 267 267 267 267 267 266 265 263 261 259 259 262 266 272 274 275 277 279 280 283 286 290 294 298 302 304 307
221 212 214 221 218 215 214 207 207 213 215 215 218 223 225 226 227 227 227 228 229 231 233 233 225 218 220 227 237 247 251 250 253 259 261 259 257 254 252 254 258 262 265 268 268 264 261 261 260 258 259 262 264 265 266 266 267 268 266 266 266 266 265 265 264 263 261 259 258 260 264 269 272 273 274 276 277 280 284 289 295 299 302 304 305
212 206 207 213 216 215 212 211 214 219 219 217 218 220 222 223 225 227 228 228 231 234 237 234 226 218 220 230 242 250 252 252 255 258 256 252 249 251 254 257 261 264 265 268 271 271 267 265 264 262 261 261 261 263 264 265 266 265 264 263 264 264 264 264 263 262 261 259 259 260 263 268 271 271 271 274 276 278 283 289 294 298 300 301 302
204 208 207 208 212 216 218 219 221 222 219 216 216 219 221 222 223 225 227 230 233 237 239 235 227 223 227 236 241 242 244 247 252 253 249 246 247 250 256 260 263 266 268 269 272 277 276 269 262 259 258 258 259 259 261 262 261 261 260 260 261 262 262 261 262 262 261 260 259 259 262 266 268 268 269 271 274 278 282 286 289 293 297 300 301
209 215 214 212 215 220 221 219 217 215 213 213 215 216 217 218 221 227 233 237 240 244 248 246 240 237 239 244 246 247 246 247 249 249 245 244 249 254 258 261 264 268 272 272 272 274 274 266 259 256 257 260 261 260 258 258 258 257 256 256 257 258 258 259 261 262 261 260 258 259 260 263 264 265 266 269 273 277 281 283 285 289 295 299 301
212 214 214 213 213 214 214 211 207 206 208 210 213 218 225 233 241 249 256 261 262 262 259 253 248 247 250 252 252 252 250 248 248 248 245 245 251 256 260 265 271 274 274 271 269 267 263 259 258 260 262 263 263 262 259 258 257 257 256 256 255 256 256 258 260 261 260 259 258 258 259 261 262 262 264 267 272 276 279 280 283 288 292 295 297
214 213 210 208 206 204 203 202 202 206 211 215 221 231 240 244 248 250 252 256 260 260 257 254 252 250 253 255 254 251 248 248 248 246 244 247 252 258 264 273 279 277 271 265 262 261 260 260 262 264 264 263 262 262 262 261 260 259 259 258 257 257 257 258 259 260 259 259 258 257 257 259 259 260 263 267 270 274 276 279 283 289 292 292 293
206 203 199 200 201 200 200 201 205 210 216 222 228 233 235 235 240 244 245 248 252 253 254 256 256 253 253 255 256 254 255 256 251 243 242 248 254 261 270 276 276 271 265 263 263 265 265 266 266 264 263 263 263 264 265 265 264 263 262 261 261 260 258 258 258 258 258 259 258 257 256 257 257 258 262 266 269 272 275 278 284 290 293 292 291
175 181 188 197 204 207 210 214 216 218 222 226 230 234 237 241 245 249 251 253 256 257 255 252 251 252 254 256 256 255 257 260 254 244 244 251 257 261 265 268 268 266 265 265 267 268 267 267 267 267 266 265 266 267 269 269 269 268 266 264 264 262 261 260 260 259 259 259 258 257 256 255 255 258 262 265 267 269 272 276 282 289 293 293 293
180 191 205 215 221 223 226 229 232 235 238 241 244 248 252 255 256 257 257 257 258 260 259 253 250 252 255 254 252 252 252 253 252 248 246 249 252 254 257 259 261 263 265 267 268 268 267 267 268 268 268 268 268 270 271 271 271 271 269 267 266 265 264 263 261 260 259 259 258 257 256 255 254 257 261 264 266 266 268 273 280 288 293 295 294
195 211 225 232 232 231 231 237 248 254 256 256 257 258 260 261 260 258 257 258 258 258 259 258 256 256 254 250 250 251 250 250 252 249 244 243 246 251 255 255 256 259 263 266 267 267 267 267 266 265 265 266 267 268 270 271 271 271 270 269 268 267 266 264 261 260 259 258 257 256 255 253 253 256 260 263 263 262 265 271 279 286 292 296 295
217 220 225 231 232 232 233 239 249 257 258 256 255 255 256 260 261 257 252 254 256 257 258 259 260 259 258 256 254 251 249 249 250 245 240 240 248 254 255 253 252 256 261 264 265 266 266 264 262 261 261 262 265 268 271 273 274 273 272 270 269 267 266 264 263 262 261 259 257 254 253 251 252 254 258 261 260 260 263 270 276 283 290 295 295
224 226 232 237 237 237 239 243 247 252 255 256 255 253 253 256 258 254 250 250 254 256 258 260 262 262 262 261 257 251 246 246 245 240 238 242 251 255 253 251 252 257 261 262 263 264 263 261 258 258 258 262 267 271 274 275 276 276 275 272 269 267 267 266 265 265 263 261 259 256 254 253 253 255 258 260 260 260 262 267 273 280 288 294 295
227 231 237 240 240 240 242 243 243 245 250 254 256 257 258 258 256 251 248 250 255 258 259 261 261 261 261 260 257 253 250 247 243 240 241 248 253 253 251 252 255 259 262 264 264 263 262 259 257 257 259 263 268 271 273 275 275 277 277 274 271 269 268 267 267 267 266 264 262 259 256 255 254 255 259 260 259 258 259 263 270 279 287 292 293
230 233 235 237 237 237 238 239 241 244 248 253 257 261 262 261 258 253 251 254 258 259 259 259 258 257 258 258 257 254 251 248 244 241 244 249 250 250 250 252 256 261 265 265 264 262 260 258 256 257 260 263 266 268 271 273 274 275 276 274 272 271 270 269 269 268 266 265 263 260 257 256 255 257 258 258 255 254 256 262 270 278 285 290 291
231 234 236 237 238 239 238 238 240 243 247 251 255 258 260 261 260 259 258 258 258 256 254 256 258 258 259 261 259 254 248 245 241 240 243 245 246 246 249 252 257 262 265 265 264 263 261 260 260 261 263 264 265 267 269 272 274 275 274 274 273 272 271 270 267 265 264 262 261 259 257 256 256 256 255 253 252 252 256 262 270 278 283 287 288
236 237 239 240 241 241 241 239 239 243 248 251 253 255 257 259 261 263 263 261 257 253 252 255 257 258 258 259 258 256 251 247 243 241 242 244 244 245 248 251 255 259 263 264 264 263 263 263 263 264 264 265 266 269 271 272 273 273 273 273 273 272 271 269 267 264 263 262 259 257 255 253 253 253 251 249 249 252 256 262 270 276 281 283 284
243 243 244 246 247 247 245 243 242 245 250 254 255 256 258 259 261 263 264 264 261 259 258 260 261 260 257 255 255 254 252 250 248 248 248 246 244 244 245 247 250 254 257 259 260 261 263 264 263 262 262 265 269 272 273 272 271 272 272 272 273 272 270 269 267 265 262 259 256 254 252 251 250 250 249 247 247 251 257 263 270 275 279 281 283
247 246 246 248 250 251 249 247 246 245 248 251 255 258 262 265 266 266 264 263 263 262 262 262 264 263 260 257 255 254 252 250 251 253 252 247 244 244 245 245 247 251 254 256 257 259 260 261 260 259 262 268 273 274 273 271 271 271 271 271 271 270 269 268 267 264 260 257 255 253 251 250 249 247 247 246 247 250 257 263 269 273 276 279 280
250 249 249 250 251 252 252 253 253 252 252 255 258 261 265 267 268 268 267 265 265 264 262 262 262 262 261 259 257 256 254 252 253 256 255 249 244 244 244 243 244 248 252 255 257 258 257 256 257 259 264 270 272 272 271 271 271 271 270 269 269 268 266 266 264 262 258 256 254 252 251 249 248 246 245 245 247 250 256 261 266 269 272 275 277
249 250 250 250 251 252 254 255 257 258 259 259 261 263 265 266 266 268 269 268 265 264 264 263 263 262 261 260 259 258 258 257 257 257 254 248 245 245 244 241 242 246 250 252 254 256 256 257 259 262 265 267 268 268 269 270 270 270 270 269 268 267 265 264 262 259 258 256 253 251 249 248 246 245 245 245 246 249 253 258 263 266 269 272 274
249 249 250 250 251 251 253 254 255 256 258 260 260 262 263 264 266 267 267 265 262 262 264 265 265 265 264 263 261 261 262 261 259 257 253 250 250 251 248 241 240 244 249 251 254 258 261 263 264 265 265 265 265 266 267 269 270 270 270 268 267 267 266 264 261 258 256 254 252 250 250 249 247 245 244 244 245 248 252 255 259 264 267 270 273
Height
3107 3108 3109 3111 3113 3115 3117 3118 3119 3120 3121 3122 3123 3124 3125 3126 3127 3128 3129 3130 3131 3131 3132 3133 3134 3135 3135 3136 3137 3138 3139 3140 3140 3141 3142 3142 3143 3143 3144 3144 3144 3144 3144 3144 3143 3143 3142 3142 3142 3142 3142 3141 3141 3140 3139 3138 3137 3136 3135 3134 3133 3132 3132 3131 3130 3129 3128 3127 3126 3125 3124 3123 3121 3119 3117 3116 3114 3112 3110 3109 3107 3104 3102 3098 3095
3104 3105 3107 3109 3110 3113 3114 3115 3116 3118 3119 3120 3121 3122 3123 3124 3124 3125 3126 3127 3128 3129 3130 3131 3132 3132 3133 3134 3135 3136 3137 3137 3138 3139 3139 3140 3140 3141 3141 3142 3142 3142 3142 3141 3141 3140 3140 3140 3140 3140 3139 3139 3138 3138 3137 3136 3135 3135 3134 3132 3132 3131 3130 3129 3128 3127 3127 3126 3125 3124 3123 3121 3120 3118 3116 3115 3114 3112 3110 3107 3105 3103 3101 3097 3094
3101 3102 3104 3106 3108 3110 3111 3112 3114 3115 3116 3117 3118 3120 3121 3121 3122 3123 3124 3125 3126 3127 3128 3129 3129 3130 3132 3133 3134 3134 3135 3135 3136 3136 3137 3138 3138 3139 3139 3139 3139 3139 3139 3139 3139 3138 3138 3138 3137 3137 3137 3136 3136 3135 3134 3134 3133 3133 3132 3131 3130 3129 3128 3128 3127 3126 3125 3125 3123 3122 3121 3120 3119 3117 3115 3113 3112 3111 3109 3107 3104 3102 3099 3096 3093
3097 3099 3101 3103 3105 3107 3108 3109 3111 3112 3113 3114 3116 3117 3118 3119 3120 3121 3122 3122 3123 3124 3125 3126 3127 3129 3130 3131 3132 3132 3133 3133 3134 3134 3135 3135 3136 3136 3137 3137 3137 3137 3137 3136 3136 3136 3136 3135 3135 3135 3135 3134 3134 3133 3132 3132 3131 3130 3130 3129 3129 3128 3127 3126 3125 3124 3124 3123 3122 3121 3120 3119 3117 3116 3114 3111 3110 3109 3108 3106 3104 3100 3097 3095 3092
3094 3096 3098 3100 3102 3104 3105 3107 3108 3109 3111 3112 3113 3115 3116 3117 3118 3118 3119 3120 3121 3122 3123 3124 3125 3127 3128 3129 3129 3130 3130 3131 3131 3132 3132 3133 3134 3134 3134 3135 3134 3134 3134 3134 3134 3134 3133 3133 3133 3133 3132 3132 3131 3131 3130 3130 3129 3128 3128 3127 3127 3126 3125 3124 3123 3122 3122 3121 3120 3119 3118 3117 3116 3114 3113 3110 3108 3107 3105 3104 3103 3100 3096 3093 3090
3091 3093 3095 3097 3099 3101 3102 3104 3105 3107 3108 3110 3111 3112 3113 3114 3115 3116 3117 3118 3119 3120 3121 3122 3123 3124 3125 3126 3127 3128 3128 3128 3129 3130 3130 3131 3131 3132 3132 3132 3132 3132 3132 3132 3131 3131 3131 3131 3130 3130 3129 3129 3129 3128 3128 3127 3126 3126 3126 3125 3125 3124 3124 3123 3122 3121 3120 3119 3119 3117 3116 3115 3114 3112 3111 3110 3108 3106 3104 3102 3100 3099 3097 3093 3089
3088 3090 3092 3094 3096 3098 3100 3101 3102 3104 3105 3107 3108 3109 3111 3112 3113 3114 3115 3115 3117 3118 3119 3120 3121 3122 3123 3124 3125 3125 3126 3126 3127 3128 3128 3129 3129 3129 3129 3129 3129 3129 3129 3129 3129 3129 3128 3128 3128 3127 3127 3127 3126 3126 3125 3125 3124 3124 3123 3123 3123 3122 3122 3121 3120 3119 3118 3118 3117 3116 3114 3113 3112 3110 3109 3108 3107 3105 3103 3102 3100 3098 3096 3094 3090
3085 3087 3090 3092 3094 3096 3097 3098 3100 3101 3103 3104 3106 3107 3108 3109 3110 3111 3112 3113 3114 3115 3116 3117 3118 3119 3120 3121 3122 3123 3123 3124 3125 3126 3126 3126 3127 3127 3127 3127 3127 3127 3127 3127 3127 3126 3126 3125 3125 3125 3124 3124 3124 3123 3123 3123 3122 3122 3121 3121 3120 3120 3119 3119 3118 3118 3117 3116 3115 3114 3113 3111 3110 3109 3107 3106 3105 3103 3102 3101 3099 3097 3095 3093 3090
3082 3085 3087 3089 3091 3093 3094 3095 3097 3098 3099 3101 3102 3103 3105 3106 3107 3108 3109 3110 3111 3112 3113 3114 3115 3116 3118 3118 3119 3120 3121 3122 3123 3123 3124 3124 3124 3125 3125 3125 3125 3124 3124 3124 3124 3123 3123 3122 3122 3122 3122 3122 3121 3121 3121 3120 3120 3119 3119 3119 3118 3118 3117 3117 3116 3116 3115 3114 3113 3112 3111 3110 3108 3107 3106 3105 3103 3102 3100 3099 3097 3095 3093 3091 3089
3079 3082 3084 3087 3089 3090 3091 3092 3093 3094 3096 3098 3099 3101 3102 3103 3104 3105 3106 3107 3108 3109 3110 3111 3112 3114 3115 3116 3117 3118 3119 3119 3120 3120 3121 3121 3122 3122 3122 3122 3122 3122 3122 3121 3120 3120 3120 3119 3119 3118 3118 3119 3119 3118 3118 3118 3118 3117 3117 3117 3116 3116 3115 3115 3114 3114 3113 3112 3111 3110 3109 3108 3107 3105 3104 3103 3102 3100 3099 3097 3095 3094 3092 3091 3088
3076 3079 3082 3084 3086 3087 3088 3089 3090 3091 3093 3094 3096 3097 3099 3100 3101 3102 3103 3104 3105 3106 3107 3108 3110 3111 3112 3113 3114 3115 3116 3117 3117 3118 3118 3119 3119 3120 3120 3120 3119 3119 3118 3118 3117 3117 3116 3115 3115 3115 3114 3114 3115 3116 3116 3116 3116 3115 3115 3114 3114 3114 3113 3113 3112 3112 3111 3111 3109 3108 3107 3106 3105 3104 3102 3101 3100 3099 3097 3095 3094 3092 3091 3089 3087
3074 3076 3079 3081 3082 3084 3085 3086 3087 3088 3090 3091 3093 3094 3095 3096 3098 3099 3100 3101 3102 3103 3104 3105 3107 3108 3109 3110 3111 3112 3113 3114 3114 3115 3116 3116 3117 3117 3117 3117 3116 3116 3115 3115 3115 3115 3114 3114 3114 3114 3113 3112 3112 3113 3114 3114 3113 3113 3113 3112 3112 3112 3111 3111 3110 3109 3109 3109 3108 3107 3106 3104 3103 3102 3101 3099 3098 3097 3095 3093 3092 3090 3088 3086 3084
3071 3073 3075 3077 3079 3080 3081 3083 3084 3085 3086 3088 3090 3091 3092 3093 3094 3096 3097 3098 3099 3100 3101 3102 3104 3105 3106 3107 3108 3109 3110 3111 3112 3112 3113 3113 3114 3114 3114 3114 3114 3114 3114 3113 3114 3114 3114 3114 3114 3114 3113 3112 3110 3110 3111 3111 3111 3111 3111 3110 3110 3110 3109 3108 3108 3107 3107 3106 3106 3105 3104 3103 3102 3100 3099 3098 3097 3096 3094 3092 3090 3088 3086 3084 3082
3068 3070 3072 3073 3075 3076 3078 3079 3080 3082 3083 3084 3086 3087 3088 3090 3091 3093 3094 3094 3095 3097 3098 3099 3101 3102 3103 3104 3105 3106 3107 3108 3109 3109 3110 3110 3111 3111 3111 3111 3111 3111 3111 3111 3111 3112 3111 3111 3111 3111 3111 3111 3109 3109 3109 3109 3109 3109 3109 3108 3108 3107 3107 3106 3106 3105 3105 3104 3104 3103 3102 3101 3100 3099 3097 3096 3095 3094 3093 3091 3089 3087 3085 3082 3080
3064 3066 3068 3069 3070 3072 3073 3075 3076 3078 3079 3081 3082 3083 3085 3086 3088 3089 3090 3091 3093 3094 3095 3096 3098 3099 3100 3101 3102 3103 3104 3105 3106 3106 3107 3107 3108 3108 3108 3108 3108 3108 3108 3108 3108 3108 3108 3108 3108 3108 3109 3109 3108 3107 3107 3107 3107 3107 3106 3106 3106 3105 3105 3104 3104 3103 3103 3102 3101 3101 3100 3099 3098 3097 3096 3095 3094 3092 3091 3089 3088 3086 3084 3081 3079
3061 3062 3064 3065 3066 3067 3069 3071 3072 3074 3075 3077 3078 3080 3081 3082 3084 3086 3088 3089 3090 3091 3092 3093 3095 3096 3097 3098 3099 3100 3101 3101 3102 3103 3103 3104 3104 3105 3105 3105 3105 3105 3105 3105 3105 3105 3105 3105 3105 3106 3106 3106 3106 3105 3105 3105 3105 3104 3104 3104 3104 3103 3103 3102 3102 3101 3101 3100 3100 3099 3098 3097 3096 3095 3094 3093 3092 3091 3089 3088 3086 3084 3082 3080 3078
3057 3058 3059 3060 3062 3063 3065 3067 3068 3070 3071 3073 3075 3076 3078 3079 3082 3083 3085 3086 3087 3088 3089 3091 3092 3093 3095 3096 3097 3097 3098 3098 3099 3099 3100 3100 3101 3101 3102 3102 3102 3101 3102 3102 3103 3102 3102 3102 3103 3103 3104 3104 3103 3103 3102 3102 3102 3102 3102 3102 3101 3101 3100 3100 3099 3099 3099 3098 3098 3097 3096 3095 3095 3093 3092 3091 3090 3089 3087 3086 3084 3082 3081 3079 3077
3053 3055 3056 3057 3058 3060 3061 3063 3065 3066 3068 3070 3071 3073 3075 3077 3079 3080 3082 3083 3083 3085 3087 3088 3089 3091 3092 3093 3094 3094 3094 3095 3095 3096 3097 3098 3098 3099 3099 3099 3098 3098 3098 3099 3099 3099 3099 3099 3100 3101 3101 3101 3101 3100 3100 3100 3100 3100 3100 3100 3099 3099 3098 3098 3097 3097 3097 3096 3096 3095 3094 3093 3093 3092 3090 3089 3088 3087 3085 3084 3082 3081 3079 3077 3075
3050 3051 3052 3053 3055 3056 3058 3059 3061 3062 3064 3067 3069 3070 3072 3075 3077 3078 3079 3080 3079 3081 3083 3085 3086 3088 3090 3090 3091 3091 3091 3091 3093 3094 3094 3095 3096 3096 3095 3095 3095 3095 3095 3096 3096 3096 3097 3097 3098 3098 3098 3098 3098 3098 3097 3097 3097 3097 3097 3097 3097 3096 3096 3095 3095 3095 3095 3094 3094 3093 3092 3091 3091 3090 3088 3087 3086 3085 3083 3082 3080 3079 3078 3076 3073
3047 3048 3049 3050 3051 3053 3054 3056 3057 3058 3060 3063 3066 3067 3069 3074 3076 3076 3076 3077 3077 3078 3080 3082 3084 3086 3086 3087 3087 3087 3087 3088 3090 3091 3092 3092 3093 3093 3092 3092 3092 3093 3093 3093 3093 3094 3094 3095 3095 3095 3095 3095 3095 3095 3094 3094 3095 3095 3095 3094 3094 3094 3093 3093 3093 3093 3092 3092 3092 3091 3090 3090 3089 3088 3086 3085 3083 3082 3081 3080 3079 3078 3076 3074 3072
3043 3044 3045 3045 3046 3048 3050 3052 3052 3053 3056 3060 3062 3063 3066 3070 3071 3071 3072 3075 3076 3076 3077 3080 3081 3082 3083 3084 3083 3083 3083 3086 3087 3088 3089 3089 3090 3090 3090 3090 3090 3090 3090 3090 3091 3091 3092 3092 3092 3092 3092 3092 3092 3092 3092 3092 3092 3092 3092 3091 3091 3091 3091 3091 3090 3090 3090 3090 3090 3089 3089 3088 3087 3085 3084 3083 3082 3080 3079 3078 3077 3076 3074 3073 3071
3038 3039 3040 3041 3043 3044 3046 3047 3048 3049 3052 3056 3059 3061 3063 3066 3067 3068 3070 3072 3073 3074 3076 3078 3079 3079 3079 3080 3080 3080 3081 3083 3084 3085 3086 3087 3087 3088 3088 3088 3087 3087 3088 3088 3089 3089 3090 3090 3089 3089 3089 3089 3089 3089 3089 3089 3089 3089 3089 3088 3088 3088 3088 3088 3088 3088 3088 3088 3088 3087 3087 3086 3085 3084 3083 3081 3080 3079 3077 3076 3075 3074 3073 3071 3069
3033 3034 3035 3037 3039 3040 3041 3043 3045 3045 3048 3052 3057 3060 3062 3063 3065 3066 3067 3068 3069 3071 3073 3074 3075 3075 3075 3077 3078 3079 3080 3081 3082 3083 3084 3084 3085 3085 3085 3085 3085 3085 3086 3086 3087 3087 3087 3087 3087 3087 3086 3086 3086 3086 3086 3086 3086 3086 3086 3086 3086 3086 3085 3085 3085 3086 3086 3086 3085 3085 3084 3084 3083 3082 3081 3080 3078 3077 3076 3074 3073 3072 3071 3069 3068
3027 3028 3030 3032 3034 3035 3037 3040 3041 3042 3044 3049 3053 3057 3059 3061 3062 3063 3063 3064 3065 3067 3068 3069 3070 3071 3072 3074 3076 3077 3077 3078 3079 3080 3081 3081 3082 3082 3082 3082 3082 3083 3083 3084 3085 3085 3085 3085 3084 3084 3084 3084 3084 3083 3083 3083 3083 3083 3083 3083 3083 3083 3083 3083 3083 3083 3083 3083 3083 3083 3082 3082 3081 3080 3079 3078 3077 3076 3074 3073 3072 3071 3069 3068 3066
3021 3023 3025 3027 3029 3031 3034 3036 3037 3039 3043 3045 3048 3053 3056 3057 3058 3059 3060 3061 3062 3063 3064 3065 3066 3068 3070 3072 3073 3074 3074 3075 3076 3076 3077 3078 3078 3079 3079 3079 3079 3080 3081 3081 3081 3082 3082 3082 3082 3082 3082 3082 3082 3081 3081 3081 3081 3080 3080 3080 3081 3081 3080 3080 3080 3080 3080 3080 3080 3080 3080 3079 3079 3078 3078 3077 3076 3074 3073 3072 3071 3069 3068 3067 3065
3020 3022 3023 3024 3025 3027 3030 3032 3033 3037 3041 3043 3046 3050 3053 3054 3055 3056 3056 3057 3058 3060 3061 3062 3064 3066 3068 3070 3071 3071 3071 3071 3072 3073 3073 3074 3075 3076 3076 3076 3077 3077 3078 3078 3078 3079 3079 3079 3079 3080 3080 3079 3079 3079 3079 3079 3078 3078 3078 3078 3078 3078 3078 3077 3077 3077 3078 3078 3078 3078 3077 3077 3077 3076 3076 3075 3074 3073 3071 3071 3069 3068 3067 3066 3064
3019 3021 3022 3023 3023 3025 3027 3029 3031 3034 3038 3041 3044 3048 3049 3049 3051 3052 3053 3054 3056 3057 3058 3060 3061 3063 3066 3067 3068 3068 3068 3069 3069 3070 3071 3071 3072 3072 3073 3073 3074 3074 3075 3075 3076 3076 3076 3076 3077 3077 3077 3077 3077 3077 3077 3076 3076 3076 3075 3075 3075 3075 3075 3074 3074 3074 3075 3075 3075 3075 3074 3074 3074 3074 3073 3073 3072 3071 3070 3069 3068 3067 3066 3065 3063
3017 3019 3021 3022 3022 3024 3025 3027 3029 3032 3035 3038 3041 3044 3046 3046 3048 3049 3050 3052 3053 3054 3056 3057 3059 3060 3062 3064 3064 3065 3065 3066 3067 3067 3067 3068 3068 3068 3069 3070 3071 3071 3072 3072 3072 3072 3073 3073 3073 3074 3074 3074 3074 3074 3074 3073 3073 3073 3072 3072 3072 3072 3071 3071 3071 3072 3072 3072 3072 3072 3071 3071 3071 3071 3071 3070 3070 3069 3068 3067 3067 3066 3064 3063 3062
3013 3016 3019 3020 3021 3023 3024 3026 3028 3030 3033 3036 3039 3041 3043 3044 3045 3047 3048 3049 3050 3052 3053 3054 3056 3057 3058 3060 3061 3061 3062 3063 3064 3063 3063 3063 3063 3064 3065 3066 3068 3068 3068 3068 3068 3069 3069 3069 3070 3071 3071 3071 3071 3071 3071 3070 3070 3070 3069 3069 3069 3068 3068 3069 3069 3068 3068 3068 3069 3069 3069 3069 3069 3068 3068 3068 3067 3067 3066 3065 3065 3064 3063 3061 3060
3008 3013 3016 3018 3019 3022 3023 3024 3026 3029 3031 3033 3036 3038 3040 3042 3043 3044 3045 3046 3047 3049 3050 3051 3052 3054 3055 3056 3057 3058 3059 3060 3060 3059 3058 3059 3060 3061 3062 3063 3064 3065 3065 3065 3065 3065 3066 3066 3066 3067 3068 3068 3068 3068 3068 3067 3067 3067 3066 3066 3065 3065 3065 3065 3065 3065 3065 3065 3065 3066 3066 3066 3066 3066 3065 3065 3065 3064 3063 3063 3062 3062 3061 3060 3058
3006 3011 3015 3017 3019 3021 3022 3023 3025 3027 3029 3031 3034 3036 3038 3039 3040 3042 3043 3044 3045 3045 3046 3048 3049 3050 3052 3053 3054 3055 3055 3056 3055 3055 3056 3057 3057 3058 3059 3060 3061 3061 3062 3062 3062 3062 3063 3063 3063 3064 3065 3065 3065 3065 3065 3064 3064 3064 3063 3063 3062 3062 3062 3062 3062 3062 3061 3062 3062 3062 3063 3063 3063 3063 3062 3062 3062 3062 3061 3061 3060 3060 3059 3058 3056
3005 3009 3012 3015 3017 3019 3021 3022 3024 3025 3028 3030 3033 3034 3036 3037 3038 3039 3040 3041 3042 3043 3044 3045 3046 3047 3049 3051 3052 3052 3052 3052 3052 3052 3053 3053 3054 3055 3056 3057 3057 3058 3058 3058 3059 3060 3061 3061 3061 3061 3062 3062 3062 3062 3061 3061 3061 3060 3060 3060 3059 3059 3059 3059 3058 3058 3058 3058 3059 3059 3059 3060 3060 3060 3060 3059 3059 3059 3059 3059 3058 3057 3057 3056 3055
3003 3006 3009 3012 3014 3016 3018 3020 3022 3024 3027 3029 3030 3033 3034 3036 3037 3037 3038 3039 3039 3040 3041 3042 3044 3045 3046 3047 3048 3048 3048 3048 3049 3049 3049 3050 3051 3052 3052 3053 3053 3053 3054 3055 3056 3057 3057 3057 3058 3058 3058 3058 3058 3058 3057 3057 3057 3057 3056 3056 3056 3056 3056 3055 3055 3054 3055 3055 3055 3055 3056 3056 3056 3057 3057 3056 3057 3057 3057 3056 3055 3055 3054 3054 3053
3002 3005 3007 3010 3012 3014 3016 3019 3021 3023 3025 3027 3029 3031 3033 3034 3034 3035 3035 3036 3036 3037 3039 3040 3041 3043 3043 3044 3044 3044 3044 3045 3046 3046 3046 3047 3048 3048 3048 3049 3049 3050 3051 3052 3052 3053 3053 3053 3053 3054 3053 3054 3053 3053 3053 3053 3053 3053 3053 3053 3053 3052 3052 3051 3051 3051 3051 3051 3051 3052 3053 3053 3053 3053 3053 3053 3053 3054 3054 3053 3053 3052 3052 3051 3050
3001 3004 3006 3008 3011 3013 3015 3017 3019 3021 3023 3025 3027 3029 3030 3031 3031 3032 3032 3033 3033 3034 3036 3037 3037 3039 3040 3041 3041 3042 3042 3042 3043 3042 3042 3043 3044 3044 3045 3046 3046 3047 3047 3048 3048 3049 3049 3049 3049 3049 3049 3049 3049 3049 3049 3049 3049 3049 3049 3049 3049 3049 3048 3047 3047 3048 3048 3048 3048 3048 3049 3049 3049 3049 3050 3050 3050 3051 3051 3050 3050 3049 3049 3049 3048
2999 3002 3005 3007 3009 3011 3013 3015 3017 3019 3020 3022 3024 3026 3027 3028 3029 3029 3029 3030 3030 3031 3032 3032 3033 3035 3037 3038 3038 3039 3040 3039 3039 3038 3039 3040 3040 3041 3042 3043 3043 3043 3043 3043 3044 3044 3044 3045 3045 3045 3045 3044 3044 3044 3044 3045 3045 3045 3045 3045 3045 3045 3044 3044 3044 3044 3044 3044 3044 3045 3045 3045 3046 3046 3046 3047 3047 3047 3047 3047 3047 3047 3046 3046 3045
2999 3001 3004 3006 3008 3009 3011 3012 3014 3016 3018 3019 3021 3022 3023 3025 3025 3025 3025 3026 3026 3026 3027 3028 3030 3032 3033 3034 3034 3035 3035 3035 3035 3035 3036 3036 3037 3038 3039 3039 3039 3039 3039 3040 3040 3040 3040 3040 3040 3040 3041 3041 3041 3041 3041 3041 3041 3041 3041 3041 3041 3041 3041 3040 3040 3040 3040 3040 3041 3041 3041 3042 3042 3042 3043 3043 3044 3044 3044 3044 3044 3044 3043 3043 3043
2996 2999 3003 3005 3006 3007 3008 3010 3011 3013 3015 3016 3018 3019 3020 3021 3021 3021 3021 3022 3022 3022 3023 3024 3026 3027 3029 3030 3030 3031 3031 3031 3031 3032 3033 3034 3034 3035 3035 3035 3035 3036 3036 3036 3036 3036 3036 3037 3037 3037 3037 3037 3037 3037 3037 3037 3037 3038 3038 3038 3037 3037 3037 3037 3036 3036 3037 3037 3037 3037 3037 3038 3039 3039 3039 3040 3040 3041 3041 3041 3041 3041 3041 3040 3040
2993 2996 3000 3003 3004 3005 3007 3008 3010 3012 3013 3014 3015 3016 3017 3017 3018 3018 3018 3018 3019 3019 3019 3021 3022 3024 3025 3026 3026 3026 3027 3027 3028 3029 3030 3031 3031 3031 3031 3031 3032 3032 3032 3032 3032 3032 3033 3033 3033 3033 3033 3033 3034 3034 3034 3034 3034 3034 3034 3033 3033 3033 3033 3033 3033 3033 3033 3033 3034 3034 3034 3034 3035 3036 3036 3036 3037 3038 3038 3038 3038 3038 3038 3037 3036
2993 2995 2998 3000 3002 3004 3005 3007 3009 3011 3011 3012 3012 3013 3014 3014 3014 3014 3015 3015 3016 3016 3017 3017 3019 3020 3021 3022 3022 3023 3024 3024 3025 3026 3026 3027 3027 3028 3028 3028 3028 3028 3029 3029 3028 3028 3028 3029 3029 3029 3030 3030 3030 3031 3031 3031 3030 3030 3030 3030 3030 3030 3030 3030 3029 3029 3029 3030 3030 3030 3030 3031 3031 3032 3032 3033 3034 3034 3034 3034 3034 3035 3034 3034 3033
2994 2996 2997 2999 3001 3003 3005 3007 3008 3008 3008 3009 3009 3010 3011 3011 3011 3012 3012 3013 3013 3014 3014 3015 3016 3016 3017 3018 3019 3020 3020 3021 3022 3022 3023 3023 3024 3024 3025 3025 3025 3025 3025 3025 3024 3024 3024 3025 3025 3026 3026 3027 3027 3027 3027 3027 3027 3026 3026 3026 3026 3026 3026 3026 3026 3026 3026 3026 3026 3026 3027 3027 3028 3028 3029 3030 3030 3031 3031 3031 3031 3031 3031 3030 3030
2995 2996 2997 2999 3001 3002 3004 3005 3005 3005 3005 3006 3007 3007 3008 3008 3008 3009 3009 3010 3010 3011 3011 3012 3013 3013 3014 3014 3015 3016 3016 3017 3018 3019 3019 3020 3020 3021 3021 3021 3021 3022 3021 3021 3021 3021 3021 3021 3021 3022 3023 3023 3024 3024 3024 3024 3023 3023 3022 3022 3022 3022 3022 3022 3022 3022 3022 3023 3023 3023 3023 3024 3024 3025 3025 3026 3027 3027 3027 3028 3028 3027 3027 3027 3026
2994 2995 2996 2998 2999 3001 3001 3002 3002 3003 3003 3003 3004 3004 3004 3005 3005 3006 3007 3007 3007 3008 3008 3009 3009 3010 3010 3010 3011 3011 3012 3013 3014 3015 3016 3017 3017 3018 3018 3018 3018 3018 3018 3017 3017 3017 3017 3018 3018 3019 3019 3020 3020 3020 3020 3020 3019 3019 3019 3018 3018 3018 3019 3019 3019 3019 3019 3019 3019 3020 3020 3020 3021 3021 3022 3023 3023 3023 3024 3024 3024 3024 3024 3024 3023
2993 2994 2995 2996 2997 2998 2999 2999 3000 3000 3000 3000 3001 3001 3001 3002 3002 3003 3004 3004 3004 3004 3005 3005 3005 3006 3006 3006 3006 3007 3008 3009 3010 3012 3013 3013 3014 3014 3014 3014 3014 3014 3014 3014 3013 3013 3014 3014 3015 3015 3016 3016 3016 3016 3016 3016 3015 3015 3015 3015 3014 3015 3015 3015 3015 3015 3015 3015 3016 3016 3016 3017 3017 3017 3018 3019 3019 3019 3020 3020 3021 3021 3021 3020 3020
2991 2991 2992 2993 2994 2995 2995 2996 2996 2997 2997 2997 2997 2998 2998 2999 2999 3000 3000 3001 3001 3001 3001 3001 3001 3002 3002 3002 3003 3004 3004 3005 3007 3008 3009 3009 3010 3010 3010 3010 3010 3010 3010 3010 3010 3010 3010 3011 3011 3012 3012 3012 3012 3012 3012 3012 3011 3011 3011 3011 3011 3011 3011 3011 3011 3011 3011 3011 3012 3012 3012 3013 3013 3014 3014 3015 3015 3016 3016 3017 3017 3017 3017 3017 3016
2988 2988 2989 2989 2990 2991 2991 2992 2992 2993 2993 2994 2994 2995 2996 2996 2996 2996 2997 2997 2997 2998 2998 2998 2998 2998 2999 2999 3000 3000 3001 3002 3002 3004 3005 3005 3005 3006 3005 3005 3006 3006 3006 3006 3006 3006 3007 3008 3008 3008 3009 3008 3008 3008 3008 3008 3008 3007 3007 3007 3007 3007 3007 3007 3007 3007 3007 3007 3008 3008 3008 3009 3009 3010 3010 3011 3012 3012 3013 3013 3014 3013 3013 3013 3013
2985 2985 2986 2986 2986 2987 2988 2988 2989 2990 2991 2991 2991 2991 2992 2992 2992 2993 2993 2993 2993 2994 2994 2994 2995 2996 2996 2996 2997 2997 2997 2998 2998 3000 3000 3001 3001 3001 3001 3001 3001 3002 3002 3002 3002 3003 3004 3004 3004 3005 3005 3004 3004 3004 3004 3004 3003 3004 3003 3003 3003 3003 3003 3003 3003 3003 3003 3003 3003 3004 3004 3004 3005 3006 3007 3007 3008 3008 3009 3010 3010 3010 3010 3010 3010
2982 2982 2983 2983 2983 2984 2985 2985 2986 2987 2988 2988 2988 2988 2988 2988 2988 2989 2989 2989 2990 2990 2991 2991 2991 2992 2993 2993 2993 2993 2993 2994 2994 2995 2996 2996 2997 2997 2997 2996 2997 2997 2998 2998 2999 2999 3000 3000 3000 3001 3001 3001 3000 3000 2999 2999 2999 2999 2999 2999 2999 2999 2999 2999 2999 2999 2999 2999 2999 2999 2999 3000 3001 3002 3003 3003 3004 3005 3005 3006 3006 3006 3007 3007 3007
2979 2980 2980 2981 2981 2981 2982 2982 2983 2983 2984 2984 2984 2984 2984 2984 2985 2985 2986 2986 2987 2987 2987 2988 2988 2988 2989 2989 2989 2990 2990 2990 2990 2991 2991 2992 2993 2993 2993 2993 2992 2993 2993 2994 2995 2995 2996 2996 2996 2997 2997 2997 2996 2996 2995 2995 2995 2995 2995 2995 2995 2995 2995 2995 2995 2995 2995 2995 2995 2995 2995 2996 2997 2998 2999 2999 3000 3001 3002 3002 3003 3003 3003 3003 3003
2977 2977 2978 2978 2978 2978 2979 2979 2980 2980 2980 2981 2981 2981 2981 2981 2982 2983 2983 2983 2983 2984 2984 2984 2984 2984 2984 2985 2985 2985 2986 2986 2987 2987 2987 2988 2988 2989 2989 2989 2989 2989 2990 2990 2991 2991 2992 2992 2992 2993 2993 2993 2992 2992 2992 2991 2991 2991 2990 2990 2991 2991 2991 2990 2990 2990 2990 2991 2991 2991 2991 2992 2993 2994 2995 2996 2996 2997 2998 2999 2999 2999 2999 3000 3000
2974 2974 2975 2975 2975 2976 2976 2976 2977 2977 2977 2977 2978 2978 2978 2979 2980 2980 2980 2980 2981 2981 2981 2981 2981 2981 2980 2980 2980 2981 2981 2982 2983 2983 2984 2984 2985 2985 2985 2985 2985 2986 2986 2987 2987 2987 2988 2988 2988 2988 2988 2988 2988 2987 2987 2987 2987 2987 2986 2986 2986 2986 2986 2986 2986 2986 2986 2987 2987 2987 2987 2988 2989 2990 2991 2992 2993 2993 2994 2995 2995 2996 2996 2996 2996